SAS36P EDDH-EGCC

Flight info

Callsign SAS36P
Flight time 1h 13m
Altitude 34000
Route WSN5G WSN N125 ITMIZ DCT MIMVA DCT OTBED OTBED1M
Aircraft A320/M-SDE3FGHIRWY/LB1

Departure

Time 2026-05-07 09:12
Airport Hamburg Helmut Schmidt Airport (EDDH)

Arrival

Time 2026-05-07 10:26
Airport Manchester Airport (EGCC)
Time Latitude Longitude Altitude Speed Heading
2026-05-07 08:44 53.63245 10.00357 48 ft 0 kts 86°
2026-05-07 08:59 53.63244 10.00339 48 ft 2 kts 86°
2026-05-07 08:59 53.63243 10.00310 48 ft 2 kts 86°
2026-05-07 08:59 53.63242 10.00281 48 ft 2 kts 86°
2026-05-07 09:00 53.63244 10.00254 48 ft 2 kts 144°
2026-05-07 09:00 53.63250 10.00246 48 ft 0 kts 174°
2026-05-07 09:02 53.63249 10.00246 48 ft 1 kts 177°
2026-05-07 09:02 53.63235 10.00247 48 ft 3 kts 179°
2026-05-07 09:03 53.63199 10.00250 48 ft 7 kts 176°
2026-05-07 09:03 53.63144 10.00254 47 ft 9 kts 177°
2026-05-07 09:03 53.63081 10.00257 48 ft 9 kts 187°
2026-05-07 09:03 53.63018 10.00207 47 ft 11 kts 210°
2026-05-07 09:04 53.62947 10.00131 48 ft 13 kts 213°
2026-05-07 09:04 53.62881 10.00054 46 ft 11 kts 225°
2026-05-07 09:04 53.62844 9.99953 46 ft 12 kts 242°
2026-05-07 09:04 53.62811 9.99831 45 ft 7 kts 258°
2026-05-07 09:05 53.62831 9.99781 43 ft 0 kts 331°
2026-05-07 09:06 53.62834 9.99778 44 ft 0 kts 331°
2026-05-07 09:11 53.62835 9.99778 45 ft 1 kts 331°
2026-05-07 09:11 53.62975 9.99652 45 ft 58 kts 333°
2026-05-07 09:11 53.63541 9.99166 47 ft 121 kts 332°
2026-05-07 09:11 53.64431 9.98402 133 ft 159 kts 330°
2026-05-07 09:12 53.65431 9.97494 557 ft 166 kts 334°
2026-05-07 09:12 53.66483 9.96546 957 ft 178 kts 333°
2026-05-07 09:12 53.67607 9.95504 1414 ft 192 kts 336°
2026-05-07 09:12 53.68867 9.94430 1802 ft 213 kts 336°
2026-05-07 09:13 53.70212 9.93288 2538 ft 219 kts 331°
2026-05-07 09:13 53.71245 9.91334 3258 ft 234 kts 293°
2026-05-07 09:13 53.71407 9.88502 3707 ft 258 kts 259°
2026-05-07 09:13 53.70938 9.85446 4253 ft 278 kts 251°
2026-05-07 09:14 53.70295 9.82337 5146 ft 283 kts 249°
2026-05-07 09:14 53.69603 9.79212 6110 ft 286 kts 250°
2026-05-07 09:14 53.68911 9.76057 7043 ft 287 kts 250°
2026-05-07 09:14 53.68242 9.72903 7949 ft 290 kts 251°
2026-05-07 09:15 53.67584 9.69687 8892 ft 290 kts 251°
2026-05-07 09:15 53.66931 9.66442 9728 ft 295 kts 252°
2026-05-07 09:15 53.66034 9.63353 10147 ft 296 kts 237°
2026-05-07 09:15 53.64844 9.60398 10569 ft 312 kts 236°
2026-05-07 09:16 53.63590 9.57296 10983 ft 327 kts 236°
2026-05-07 09:16 53.62295 9.54112 11432 ft 332 kts 236°
2026-05-07 09:16 53.60981 9.50901 11858 ft 335 kts 236°
2026-05-07 09:16 53.59668 9.47705 12291 ft 338 kts 236°
2026-05-07 09:17 53.58325 9.44440 12736 ft 339 kts 236°
2026-05-07 09:17 53.56981 9.41172 13190 ft 340 kts 236°
2026-05-07 09:17 53.55628 9.37879 13652 ft 342 kts 236°
2026-05-07 09:17 53.54273 9.34578 14082 ft 343 kts 236°
2026-05-07 09:18 53.52917 9.31281 14486 ft 343 kts 236°
2026-05-07 09:18 53.51551 9.27964 14998 ft 346 kts 236°
2026-05-07 09:18 53.50174 9.24625 15641 ft 349 kts 236°
2026-05-07 09:18 53.48788 9.21268 16308 ft 350 kts 236°
2026-05-07 09:19 53.47398 9.17905 17022 ft 351 kts 236°
2026-05-07 09:19 53.45996 9.14521 17671 ft 354 kts 236°
2026-05-07 09:19 53.44598 9.11154 18288 ft 358 kts 236°
2026-05-07 09:19 53.43149 9.07671 18875 ft 361 kts 235°
2026-05-07 09:20 53.41732 9.04273 19495 ft 362 kts 235°
2026-05-07 09:20 53.40281 9.00796 20060 ft 365 kts 235°
2026-05-07 09:20 53.38815 8.97283 20588 ft 370 kts 235°
2026-05-07 09:20 53.37334 8.93744 21172 ft 372 kts 235°
2026-05-07 09:21 53.35842 8.90185 21754 ft 374 kts 236°
2026-05-07 09:21 53.34525 8.86408 22284 ft 378 kts 245°
2026-05-07 09:21 53.33559 8.82298 22816 ft 381 kts 250°
2026-05-07 09:21 53.32645 8.78125 23386 ft 383 kts 250°
2026-05-07 09:22 53.31719 8.73921 23900 ft 386 kts 250°
2026-05-07 09:22 53.30782 8.69682 24332 ft 390 kts 250°
2026-05-07 09:22 53.29838 8.65421 24769 ft 392 kts 250°
2026-05-07 09:22 53.28891 8.61127 25200 ft 395 kts 250°
2026-05-07 09:23 53.27939 8.56800 25636 ft 398 kts 250°
2026-05-07 09:23 53.26983 8.52447 26054 ft 400 kts 250°
2026-05-07 09:23 53.26048 8.48120 26470 ft 403 kts 251°
2026-05-07 09:23 53.25161 8.43673 26882 ft 405 kts 252°
2026-05-07 09:24 53.24322 8.39171 27282 ft 407 kts 253°
2026-05-07 09:24 53.23503 8.34631 27665 ft 410 kts 253°
2026-05-07 09:24 53.22680 8.30060 28052 ft 412 kts 253°
2026-05-07 09:24 53.21838 8.25469 28455 ft 414 kts 253°
2026-05-07 09:25 53.20974 8.20870 28827 ft 417 kts 252°
2026-05-07 09:25 53.20090 8.16249 29202 ft 420 kts 252°
2026-05-07 09:25 53.19193 8.11597 29595 ft 422 kts 252°
2026-05-07 09:25 53.18298 8.06931 29996 ft 424 kts 253°
2026-05-07 09:26 53.17410 8.02237 30314 ft 426 kts 253°
2026-05-07 09:26 53.16519 7.97507 30628 ft 428 kts 253°
2026-05-07 09:26 53.15626 7.92761 30945 ft 431 kts 253°
2026-05-07 09:26 53.14725 7.87987 31252 ft 433 kts 253°
2026-05-07 09:27 53.13821 7.83208 31648 ft 432 kts 253°
2026-05-07 09:27 53.12911 7.78439 32097 ft 431 kts 252°
2026-05-07 09:27 53.11148 7.69001 32975 ft 429 kts 257°
2026-05-07 09:28 53.10666 7.64110 33391 ft 429 kts 266°
2026-05-07 09:28 53.10633 7.59141 33784 ft 429 kts 272°
2026-05-07 09:28 53.10729 7.54179 34023 ft 429 kts 271°
2026-05-07 09:29 53.10896 7.44359 34057 ft 422 kts 271°
2026-05-07 09:29 53.11040 7.34619 34057 ft 420 kts 271°
2026-05-07 09:30 53.11173 7.24916 34059 ft 420 kts 271°
2026-05-07 09:30 53.11306 7.15197 34058 ft 420 kts 271°
2026-05-07 09:31 53.11426 7.05479 34057 ft 420 kts 271°
2026-05-07 09:31 53.11535 6.95814 34049 ft 421 kts 271°
2026-05-07 09:32 53.11647 6.86069 34058 ft 421 kts 271°
2026-05-07 09:32 53.11750 6.76305 34051 ft 422 kts 271°
2026-05-07 09:33 53.11843 6.66551 34055 ft 422 kts 271°
2026-05-07 09:33 53.11926 6.56782 34044 ft 423 kts 271°
2026-05-07 09:34 53.11996 6.46954 34043 ft 425 kts 272°
2026-05-07 09:34 53.12057 6.37099 34043 ft 426 kts 271°
2026-05-07 09:35 53.12113 6.27231 34046 ft 427 kts 271°
2026-05-07 09:35 53.12164 6.17336 34056 ft 427 kts 272°
2026-05-07 09:36 53.12211 6.07495 34062 ft 428 kts 271°
2026-05-07 09:36 53.12250 5.97564 34061 ft 429 kts 272°
2026-05-07 09:37 53.12273 5.87608 34068 ft 431 kts 271°
2026-05-07 09:37 53.12291 5.77624 34070 ft 431 kts 271°
2026-05-07 09:38 53.12299 5.67628 34081 ft 432 kts 271°
2026-05-07 09:38 53.12302 5.57623 34076 ft 433 kts 271°
2026-05-07 09:39 53.12300 5.47583 34086 ft 433 kts 271°
2026-05-07 09:39 53.12281 5.37606 34095 ft 433 kts 271°
2026-05-07 09:40 53.12260 5.27573 34101 ft 433 kts 271°
2026-05-07 09:40 53.12230 5.17555 34099 ft 433 kts 270°
2026-05-07 09:41 53.12195 5.09173 34100 ft 433 kts 270°
2026-05-07 09:41 53.12142 4.99137 34082 ft 434 kts 271°
2026-05-07 09:42 53.12091 4.89084 34077 ft 435 kts 271°
2026-05-07 09:42 53.12030 4.79075 34081 ft 435 kts 271°
2026-05-07 09:43 53.11961 4.68988 34088 ft 436 kts 270°
2026-05-07 09:43 53.11877 4.58899 34103 ft 436 kts 270°
2026-05-07 09:44 53.11780 4.48811 34105 ft 436 kts 270°
2026-05-07 09:44 53.11680 4.38715 34111 ft 436 kts 270°
2026-05-07 09:45 53.11574 4.28680 34113 ft 436 kts 270°
2026-05-07 09:45 53.11464 4.18592 34116 ft 436 kts 270°
2026-05-07 09:46 53.11345 4.08497 34120 ft 436 kts 270°
2026-05-07 09:46 53.11209 3.98388 34106 ft 437 kts 270°
2026-05-07 09:47 53.11062 3.88250 34107 ft 438 kts 270°
2026-05-07 09:47 53.10911 3.78103 34113 ft 439 kts 270°
2026-05-07 09:48 53.10754 3.67945 34114 ft 439 kts 270°
2026-05-07 09:48 53.10591 3.57793 34121 ft 439 kts 270°
2026-05-07 09:49 53.10422 3.47699 34112 ft 439 kts 270°
2026-05-07 09:49 53.10227 3.37530 34113 ft 440 kts 269°
2026-05-07 09:50 53.10295 3.27372 34119 ft 438 kts 279°
2026-05-07 09:50 53.11020 3.17300 34122 ft 438 kts 278°
2026-05-07 09:51 53.11720 3.07231 34119 ft 438 kts 278°
2026-05-07 09:51 53.12412 2.97151 34115 ft 438 kts 278°
2026-05-07 09:52 53.13098 2.87166 34010 ft 433 kts 278°
2026-05-07 09:52 53.13432 2.82203 33874 ft 430 kts 278°
2026-05-07 09:52 53.13758 2.77261 33734 ft 429 kts 278°
2026-05-07 09:52 53.14080 2.72326 33597 ft 427 kts 278°
2026-05-07 09:53 53.14400 2.67410 33455 ft 426 kts 278°
2026-05-07 09:53 53.14718 2.62506 33318 ft 425 kts 278°
2026-05-07 09:53 53.15034 2.57615 33181 ft 424 kts 278°
2026-05-07 09:53 53.15350 2.52735 33043 ft 423 kts 277°
2026-05-07 09:54 53.15664 2.47866 32905 ft 422 kts 277°
2026-05-07 09:54 53.15977 2.43010 32770 ft 421 kts 277°
2026-05-07 09:54 53.16288 2.38156 32638 ft 420 kts 277°
2026-05-07 09:54 53.16594 2.33306 32504 ft 419 kts 277°
2026-05-07 09:55 53.16895 2.28483 32371 ft 418 kts 277°
2026-05-07 09:55 53.17194 2.23663 32238 ft 417 kts 277°
2026-05-07 09:55 53.17491 2.18849 32107 ft 416 kts 277°
2026-05-07 09:55 53.17786 2.14052 31976 ft 415 kts 277°
2026-05-07 09:56 53.18080 2.09267 31846 ft 414 kts 277°
2026-05-07 09:56 53.18370 2.04491 31717 ft 413 kts 277°
2026-05-07 09:56 53.18656 1.99780 31590 ft 412 kts 277°
2026-05-07 09:56 53.18940 1.95016 31462 ft 412 kts 277°
2026-05-07 09:57 53.19218 1.90268 31330 ft 411 kts 277°
2026-05-07 09:57 53.19496 1.85536 31203 ft 410 kts 277°
2026-05-07 09:57 53.19773 1.80810 31069 ft 409 kts 277°
2026-05-07 09:57 53.20046 1.76095 30948 ft 408 kts 277°
2026-05-07 09:58 53.20316 1.71393 30819 ft 407 kts 277°
2026-05-07 09:58 53.20585 1.66701 30698 ft 406 kts 277°
2026-05-07 09:58 53.20850 1.62025 30574 ft 405 kts 277°
2026-05-07 09:58 53.21113 1.57350 30450 ft 404 kts 277°
2026-05-07 09:59 53.21372 1.52748 30329 ft 403 kts 276°
2026-05-07 09:59 53.21633 1.48103 30206 ft 402 kts 276°
2026-05-07 09:59 53.21889 1.43478 30066 ft 401 kts 276°
2026-05-07 09:59 53.22144 1.38854 29918 ft 400 kts 276°
2026-05-07 10:00 53.22399 1.34237 29772 ft 399 kts 276°
2026-05-07 10:00 53.22651 1.29639 29628 ft 398 kts 276°
2026-05-07 10:00 53.22898 1.25050 29485 ft 397 kts 276°
2026-05-07 10:00 53.23142 1.20469 29339 ft 396 kts 276°
2026-05-07 10:01 53.23385 1.15895 29162 ft 395 kts 276°
2026-05-07 10:01 53.23859 1.06787 29112 ft 394 kts 276°
2026-05-07 10:02 53.24330 0.97672 29106 ft 394 kts 276°
2026-05-07 10:02 53.24791 0.88553 29106 ft 394 kts 276°
2026-05-07 10:03 53.25252 0.79451 29100 ft 392 kts 275°
2026-05-07 10:03 53.25706 0.70401 29101 ft 391 kts 276°
2026-05-07 10:04 53.26145 0.61342 29093 ft 391 kts 275°
2026-05-07 10:04 53.26571 0.52325 29093 ft 391 kts 275°
2026-05-07 10:05 53.27000 0.43266 29095 ft 391 kts 275°
2026-05-07 10:05 53.27421 0.34205 29083 ft 391 kts 275°
2026-05-07 10:06 53.27836 0.25131 29084 ft 391 kts 274°
2026-05-07 10:06 53.28239 0.16060 29078 ft 391 kts 275°
2026-05-07 10:07 53.28645 0.06997 29081 ft 391 kts 278°
2026-05-07 10:07 53.30181 -0.01607 28821 ft 389 kts 296°
2026-05-07 10:07 53.31383 -0.05656 28298 ft 390 kts 296°
2026-05-07 10:08 53.32589 -0.09736 27755 ft 391 kts 296°
2026-05-07 10:08 53.33787 -0.13822 27227 ft 392 kts 296°
2026-05-07 10:08 53.34984 -0.17931 26697 ft 392 kts 296°
2026-05-07 10:08 53.36180 -0.22048 26197 ft 393 kts 296°
2026-05-07 10:09 53.37374 -0.26160 25691 ft 393 kts 295°
2026-05-07 10:09 53.38569 -0.30285 25195 ft 393 kts 295°
2026-05-07 10:09 53.39764 -0.34417 24709 ft 394 kts 295°
2026-05-07 10:09 53.40944 -0.38499 24240 ft 394 kts 295°
2026-05-07 10:10 53.42138 -0.42639 23773 ft 395 kts 295°
2026-05-07 10:10 53.43332 -0.46788 23232 ft 395 kts 295°
2026-05-07 10:10 53.44525 -0.50934 22696 ft 394 kts 295°
2026-05-07 10:10 53.45715 -0.55078 22155 ft 393 kts 295°
2026-05-07 10:11 53.46899 -0.59211 21623 ft 392 kts 294°
2026-05-07 10:11 53.48076 -0.63334 21100 ft 390 kts 294°
2026-05-07 10:11 53.49245 -0.67432 20587 ft 388 kts 294°
2026-05-07 10:11 53.50410 -0.71523 20081 ft 386 kts 294°
2026-05-07 10:12 53.51564 -0.75577 19585 ft 384 kts 294°
2026-05-07 10:12 53.52711 -0.79606 19095 ft 381 kts 294°
2026-05-07 10:12 53.53833 -0.83558 18620 ft 378 kts 294°
2026-05-07 10:12 53.54956 -0.87526 18106 ft 374 kts 294°
2026-05-07 10:13 53.56066 -0.91463 17564 ft 371 kts 294°
2026-05-07 10:13 53.57163 -0.95366 17028 ft 367 kts 294°
2026-05-07 10:13 53.58245 -0.99226 16506 ft 363 kts 294°
2026-05-07 10:13 53.59311 -1.03052 15984 ft 359 kts 294°
2026-05-07 10:14 53.60360 -1.06837 15475 ft 355 kts 294°
2026-05-07 10:14 53.61130 -1.10736 14973 ft 349 kts 277°
2026-05-07 10:14 53.61164 -1.14808 14373 ft 348 kts 266°
2026-05-07 10:14 53.61025 -1.18881 13752 ft 348 kts 266°
2026-05-07 10:15 53.60876 -1.22952 13073 ft 348 kts 265°
2026-05-07 10:15 53.60733 -1.27012 12404 ft 347 kts 265°
2026-05-07 10:15 53.60587 -1.31067 11762 ft 346 kts 265°
2026-05-07 10:15 53.60444 -1.35096 11128 ft 345 kts 265°
2026-05-07 10:16 53.60300 -1.39118 10498 ft 344 kts 265°
2026-05-07 10:16 53.60163 -1.43074 9891 ft 342 kts 265°
2026-05-07 10:16 53.60024 -1.47069 9210 ft 341 kts 265°
2026-05-07 10:16 53.59884 -1.51034 8547 ft 338 kts 265°
2026-05-07 10:17 53.59732 -1.54952 7896 ft 328 kts 266°
2026-05-07 10:17 53.59592 -1.58690 7260 ft 313 kts 265°
2026-05-07 10:17 53.59468 -1.62280 6639 ft 301 kts 265°
2026-05-07 10:17 53.59350 -1.65721 6172 ft 285 kts 266°
2026-05-07 10:18 53.59242 -1.68918 6068 ft 264 kts 265°
2026-05-07 10:18 53.59148 -1.71954 6085 ft 261 kts 265°
2026-05-07 10:18 53.59054 -1.74997 6084 ft 260 kts 265°
2026-05-07 10:18 53.58748 -1.77981 6091 ft 261 kts 248°
2026-05-07 10:19 53.57824 -1.80569 6064 ft 259 kts 231°
2026-05-07 10:19 53.56689 -1.82950 5872 ft 261 kts 231°
2026-05-07 10:19 53.55566 -1.85313 5693 ft 256 kts 231°
2026-05-07 10:19 53.54451 -1.87660 5495 ft 257 kts 231°
2026-05-07 10:20 53.53341 -1.89995 5320 ft 256 kts 231°
2026-05-07 10:20 53.52229 -1.92333 5140 ft 257 kts 230°
2026-05-07 10:20 53.51126 -1.94651 4997 ft 250 kts 230°
2026-05-07 10:20 53.50067 -1.96872 4718 ft 237 kts 230°
2026-05-07 10:21 53.49059 -1.98986 4401 ft 227 kts 230°
2026-05-07 10:21 53.48110 -2.00974 4098 ft 207 kts 230°
2026-05-07 10:21 53.47262 -2.02751 3834 ft 189 kts 229°
2026-05-07 10:21 53.46460 -2.04428 3597 ft 180 kts 229°
2026-05-07 10:22 53.45677 -2.06061 3333 ft 179 kts 229°
2026-05-07 10:22 53.44900 -2.07684 3089 ft 177 kts 228°
2026-05-07 10:22 53.44133 -2.09284 2848 ft 176 kts 228°
2026-05-07 10:22 53.43366 -2.10884 2611 ft 175 kts 228°
2026-05-07 10:23 53.42617 -2.12447 2375 ft 168 kts 227°
2026-05-07 10:23 53.41900 -2.13941 2159 ft 165 kts 228°
2026-05-07 10:23 53.41212 -2.15375 1954 ft 148 kts 227°
2026-05-07 10:23 53.40587 -2.16676 1743 ft 140 kts 227°
2026-05-07 10:24 53.39983 -2.17931 1540 ft 137 kts 227°
2026-05-07 10:24 53.39391 -2.19160 1358 ft 134 kts 226°
2026-05-07 10:24 53.38805 -2.20378 1156 ft 134 kts 227°
2026-05-07 10:24 53.38216 -2.21600 972 ft 135 kts 226°
2026-05-07 10:25 53.37622 -2.22832 774 ft 137 kts 227°
2026-05-07 10:25 53.37022 -2.24077 595 ft 138 kts 228°
2026-05-07 10:25 53.36420 -2.25325 402 ft 139 kts 229°
2026-05-07 10:25 53.35816 -2.26573 273 ft 132 kts 230°
2026-05-07 10:26 53.35425 -2.27395 245 ft 40 kts 230°
2026-05-07 10:26 53.35332 -2.27589 242 ft 20 kts 233°
2026-05-07 10:26 53.35263 -2.27816 237 ft 22 kts 245°
2026-05-07 10:26 53.35244 -2.27999 233 ft 13 kts 264°
2026-05-07 10:27 53.35241 -2.28034 232 ft 4 kts 263°
2026-05-07 10:27 53.35236 -2.28111 232 ft 7 kts 263°
2026-05-07 10:27 53.35234 -2.28135 231 ft 0 kts 262°
2026-05-07 10:28 53.35234 -2.28156 231 ft 4 kts 270°
2026-05-07 10:28 53.35235 -2.28177 231 ft 0 kts 277°
2026-05-07 10:29 53.35248 -2.28209 231 ft 5 kts 316°
2026-05-07 10:29 53.35268 -2.28217 232 ft 3 kts
2026-05-07 10:29 53.35285 -2.28201 232 ft 3 kts 40°
2026-05-07 10:30 53.35318 -2.28146 237 ft 1 kts 45°
2026-05-07 10:30 53.35327 -2.28131 235 ft 3 kts 45°
2026-05-07 10:30 53.35345 -2.28101 236 ft 5 kts 45°
2026-05-07 10:30 53.35356 -2.28082 240 ft 1 kts 45°
2026-05-07 10:31 53.35365 -2.28067 236 ft 3 kts 45°
2026-05-07 10:31 53.35380 -2.28042 237 ft 1 kts 44°
2026-05-07 10:31 53.35393 -2.28021 237 ft 5 kts 43°
2026-05-07 10:31 53.35426 -2.27969 237 ft 8 kts 42°
2026-05-07 10:32 53.35474 -2.27927 239 ft 8 kts 13°
2026-05-07 10:32 53.35535 -2.27910 237 ft 11 kts
2026-05-07 10:32 53.35606 -2.27898 240 ft 6 kts
2026-05-07 10:32 53.35628 -2.27879 241 ft 5 kts 32°
2026-05-07 10:33 53.35647 -2.27850 242 ft 4 kts 46°
2026-05-07 10:33 53.35669 -2.27810 243 ft 6 kts 45°
2026-05-07 10:33 53.35711 -2.27766 246 ft 8 kts 22°
2026-05-07 10:33 53.35744 -2.27753 247 ft 7 kts 10°
2026-05-07 10:34 53.35774 -2.27744 249 ft 0 kts
2026-05-07 10:34 53.35797 -2.27740 251 ft 5 kts
2026-05-07 10:34 53.35827 -2.27735 252 ft 4 kts
2026-05-07 10:35 53.35865 -2.27730 255 ft 6 kts
2026-05-07 10:35 53.35916 -2.27729 255 ft 9 kts
2026-05-07 10:35 53.35982 -2.27755 255 ft 11 kts 329°
2026-05-07 10:35 53.36052 -2.27830 255 ft 13 kts 324°
2026-05-07 10:36 53.36123 -2.27929 255 ft 14 kts 322°
2026-05-07 10:36 53.36199 -2.28044 255 ft 15 kts 317°
2026-05-07 10:36 53.36278 -2.28171 255 ft 15 kts 315°
2026-05-07 10:36 53.36357 -2.28308 255 ft 15 kts 313°
2026-05-07 10:37 53.36406 -2.28426 255 ft 13 kts 294°
2026-05-07 10:37 53.36459 -2.28554 255 ft 14 kts 314°
2026-05-07 10:37 53.36533 -2.28678 255 ft 14 kts 314°
2026-05-07 10:37 53.36599 -2.28777 255 ft 10 kts 336°
2026-05-07 10:38 53.36657 -2.28734 255 ft 8 kts 42°
2026-05-07 10:38 53.36703 -2.28685 255 ft 8 kts
2026-05-07 10:38 53.36741 -2.28732 255 ft 7 kts 314°
2026-05-07 10:38 53.36763 -2.28770 255 ft 0 kts 315°